Location: Ottawa
(45.4167°N, 75.7000°W)
Time: 11:06:40
(UTC-05:00)

Vanguard 1 - Visible Passes

Search period start: 12 December 2017 00:00
Search period end: 22 December 2017 00:00
Orbit: 650 x 3833 km, 34.2° (Epoch: 10 December)

Date Brightness Start Highest point End Pass type
(mag) Time Alt. Az. Time Alt. Az. Time Alt. Az.
13 Dec 14.8 05:46:49 10° SSE 05:57:30 15° SE 06:07:05 10° ESE visible
14 Dec 14.6 06:03:36 10° S 06:18:16 21° SE 06:30:52 10° E visible
15 Dec 14.5 06:21:53 10° S 06:39:06 27° SE 06:53:23 10° E visible
16 Dec 14.7 04:32:14 10° SE 04:37:17 11° SE 04:42:13 10° ESE visible
16 Dec 14.3 06:40:59 10° SSW 06:59:59 33° SSE 07:15:18 10° E visible
17 Dec 14.5 04:45:51 10° SSE 04:57:50 17° SE 05:09:13 10° E visible
17 Dec 14.1 07:00:39 10° SSW 07:20:56 39° SSE 07:36:51 10° E visible
18 Dec 14.4 05:03:04 10° S 05:18:24 23° SE 05:32:48 10° E visible
19 Dec 14.3 05:21:32 10° S 05:39:04 29° SE 05:55:18 10° E visible
20 Dec 14.5 03:31:43 10° SE 03:37:38 12° SE 03:43:36 10° ESE visible
20 Dec 14.1 05:40:45 10° SSW 05:59:49 35° SE 06:17:14 10° E visible
21 Dec 14.3 03:46:04 10° SSE 03:57:57 17° SE 04:10:09 10° E visible
21 Dec 13.9 06:00:29 10° SSW 06:20:41 41° SSE 06:38:51 10° E visible
